Starlink 31727

operational
NORAD ID: 59638 Int'l Des: 2024-082 Owner: SPXS Country: US Constellation: starlink
LEOCIRCULAR

Starlink 31727について

説明を読み込み中...

リアルタイム位置

3D地球を読み込み中...

次回通過

高度履歴

Altitude vs Time

uPlot chart will show altitude changes over time

軌道要素

1 59638U 24082H 25258.69118218 .00000590 00000-0 30945-4 0 9994
2 59638 43.0026 48.4946 0001478 263.7804 96.2879 15.27584757 78099
Epoch: Sep 15, 2025 • Age: 18 hours

現在のステータス

高度 487.2 km
速度 7.63 km/s
衛星直下点 43.14°N, 13.04°W
打ち上げ日 May 3, 2024
運用期間 1.3 years
タイプ internet

技術仕様

分類 Payload
質量 730.00 kg
乾燥質量 700.00 kg
総質量 730.00 kg
長さ 0.30 m
直径 4.10 m
スパン 29.00 m
形状 Box + pan
製造者 SPXS
バスタイプ Starlink V2M
フェーズステータス In Orbit
所有者/国 SPXS/US

大規模コンステレーション

Loading constellations...